Tracking 30995 objects as of 5-Jul-2025
HD Live streaming from Space Station
objects crossing your sky now

SL-8 R/B

Track SL-8 R/B now!
10-day predictions


NORAD ID: 4370
Int'l Code: 1970-028B
Perigee: 681.7 km
Apogee: 700.5 km
Inclination: 74.0 °
Period: 98.4 minutes
Semi major axis: 7062 km
RCS: 4.6155 m2 (large)
Launch date: April 11, 1970
Source: Commonwealth of Independent States (former USSR) (CIS)
Launch site: PLESETSK MISSILE AND SPACE COMPLEX (PKMTR)

Note: This is a ROCKET BODY
Your satellite tracking list
CINEMA 3
Track 1 satellite(s)




NASA's NSSDC Master Catalog

Two Line Element Set (TLE):
1 04370U 70028B   25186.57687427  .00000339  00000-0  72334-4 0  9997
2 04370  74.0374 234.9896 0013351 124.1612 236.0824 14.62852124440774
Source of the keplerian elements: AFSPC